Location: Unspecified
(50.7693°N, 0.0000°E)
Time: 22:58:30
(UTC+00:00)

SR - Pass Details

Date: 26 June 2019
Orbit: 581 x 875 km, 66.7° (Epoch: 15 July)

Event Time Altitude Azimuth Distance (km) Brightness Sun altitude
Rises 10:07:05 0° 324° (NW) 2,970 ? 54.6°
Reaches altitude 10° 10:09:24 10° 331° (NNW) 2,098 ? 54.9°
Maximum altitude 10:13:59 45° 45° (NE) 957 ? 55.4°
Drops below altitude 10° 10:18:57 10° 118° (ESE) 2,274 ? 56.0°
Sets 10:21:32 0° 124° (SE) 3,246 ? 56.3°
